Location: Bothwell
(42.3833°S, 147.0000°E)
Time: 01:45:31
(UTC+10:00)

ARIANE 6 FM1 Upper Stage - Visible Passes

Search period start: 09 September 2024 00:00
Search period end: 19 September 2024 00:00
Orbit: 567 x 594 km, 62.0° (Epoch: 06 September)

Date Brightness Start Highest point End Pass type
(mag) Time Alt. Az. Time Alt. Az. Time Alt. Az.
09 Sep 3.1 19:01:58 10° SSW 19:06:07 46° SE 19:08:22 24° ENE visible
09 Sep 5.0 20:41:59 10° WSW 20:44:44 20° WNW 20:44:44 20° WNW visible
10 Sep 2.6 19:06:43 10° SW 19:11:02 73° SE 19:13:51 20° NE visible
10 Sep 5.5 20:47:58 10° W 20:49:48 12° WNW 20:50:13 12° WNW visible
11 Sep 3.0 19:11:34 10° SW 19:15:51 69° NW 19:19:28 14° NNE visible
12 Sep 3.9 19:16:32 10° SW 19:20:35 41° WNW 19:24:35 10° NNE visible
13 Sep 4.9 19:21:42 10° WSW 19:25:14 25° WNW 19:28:45 10° N visible
14 Sep 5.5 19:27:14 10° WSW 19:29:49 16° WNW 19:32:23 10° NNW visible
